SCP
-0 0 0 0 0 -0 -0 -0 -0 -0 -0 -0 -0 -0 -0 -0 0 0 -0 0 0 -0 -0 -0 -0 -0 -0 -0 -0 -0 -0 -0 -0 -0 -0 -0 -0 -0 -0 0 0 -0 -0
0 0 0 0 0 -0 0 -0 -0 0 -0 -0 -0 -0 -0 -0 -0 -0 -0 -0 0 -0 -0 -0 -0 -0 -0 -0 -0 -0 -0 -0 -0 -0 -0 -0 -0 -0 -0 0 -0 -0 -0
0 0 0 0 -0 -0 0 0 -0 -0 -0 0 -0 -0 -0 -0 -0 -0 -0 -0 -0 -0 -0 -0 -0 -0 -0 -0 -0 -0 -0 -0 -0 -0 0 0 -0 -0 -0 -0 -0 -0 -0
0 0 0 0 -0 0 0 -0 0 -0 -0 -0 0 0 -0 -0 -0 -0 -0 -0 -0 -0 -0 -0 -0 -0 -0 -0 -0 -0 -0 -0 -0 0 0 -0 -0 -0 -0 -0 -0 -0 -0
0 0 0 0 0 0 0 0 0 -0 -0 -0 0 0 0 -0 -0 -0 -0 -0 -0 -0 -0 -0 -0 -0 -0 -0 -0 -0 -0 -0 0 0 -0 -0 -0 -0 -0 -0 -0 0 -0
0 0 -0 0 0 0 0 -0 -0 0 -0 -0 -0 -0 -0 -0 -0 -0 -0 -0 -0 -0 -0 -0 -0 -0 -0 -0 -0 -0 -0 -0 -0 -0 -0 0 0 -0 -0 -0 -0 -0 -0
0 0 -0 0 0 -0 -0 -0 -0 -0 -0 -0 -0 -0 -0 -0 -0 -0 -0 -0 -0 -0 -0 -0 -0 -0 -0 -0 -0 0 -0 -0 -0 -0 0 0 0 0 0 0 -0 -0 -0
0 0 -0 0 0 0 -0 -0 -0 -0 -0 -0 -0 -0 -0 -0 -0 -0 -0 -0 -0 -0 -0 -0 -0 -0 -0 0 0 0 0 -0 -0 0 0 0 0 -0 0 0 0 0 0
0 0 0 -0 0 0 0 -0 -0 -0 -0 -0 -0 -0 -0 -0 -0 -0 -0 -0 -0 -0 -0 -0 -0 -0 0 0 0 0 0 0 -0 0 0 0 0 -0 -0 0 0 0 0
0 0 0 0 -0 -0 -0 -0 -0 0 0 0 -0 -0 -0 0 -0 -0 0 0 -0 -0 -0 -0 -0 -0 0 0 0 0 0 -0 0 0 0 0 0 -0 0 -0 0 0 0
-0 -0 -0 -0 -0 0 -0 -0 0 -0 0 0 -0 -0 -0 0 -0 -0 -0 0 0 0 -0 -0 -0 -0 0 0 0 -0 0 0 0 -0 0 0 0 -0 0 -0 -0 0 0
-0 -0 -0 -0 -0 -0 -0 0 0 0 -0 0 0 -0 -0 0 -0 -0 0 0 -0 -0 -0 -0 -0 -0 -0 -0 0 -0 0 0 0 0 -0 0 0 0 0 0 0 0 0
-0 -0 -0 -0 -0 -0 -0 0 0 0 0 -0 -0 -0 -0 0 0 0 0 0 0 0 -0 -0 -0 0 0 0 -0 -0 -0 -0 -0 0 -0 -0 -0 0 -0 -0 0 0 0
-0 -0 -0 -0 -0 -0 -0 -0 0 -0 -0 0 -0 -0 0 0 0 0 0 0 0 0 0 0 -0 0 0 0 -0 0 0 0 0 -0 -0 -0 -0 0 -0 -0 0 -0 -0
0 0 0 -0 -0 -0 -0 -0 -0 0 -0 -0 0 -0 -0 -0 0 0 0 0 -0 0 0 -0 -0 0 0 0 0 0 0 0 0 0 0 -1 -0 -0 0 -0 0 0 0
0 0 0 0 -0 -0 0 0 0 0 0 -0 0 -0 -0 0 0 -0 -0 0 0 0 -0 0 0 0 -0 -0 -0 0 0 0 0 0 0 -0 -0 -0 -0 0 -0 0 0
0 0 -0 0 0 0 -0 -0 -0 0 -0 0 -0 0 0 -0 -0 0 0 -0 -0 0 0 -0 -0 0 -0 0 0 0 0 0 0 0 0 0 -0 -0 -0 0 0 0 0
0 0 -0 -0 -0 -0 -0 -0 -0 0 -0 -0 -0 -0 0 -0 -0 -0 -0 -0 -0 -0 0 0 -0 -0 -0 -0 -0 -0 -0 0 0 -0 0 0 0 0 -0 -0 0 0 0
0 0 0 -0 -0 -0 -0 -0 -0 0 0 -0 -0 -0 0 0 -0 -0 -0 -0 -0 -0 -0 -0 -0 -0 -0 -0 0 0 0 -0 0 -0 0 0 0 0 0 -0 -0 -0 0
-0 -0 -0 -0 -0 -0 0 0 -0 0 0 0 0 0 0 0 -0 0 -0 0 0 -0 -0 -0 -0 -0 -0 -0 0 -0 -0 -0 -0 0 0 -0 0 -0 -0 0 -0 -0 -0
-0 -0 -0 0 0 0 0 0 0 0 0 0 0 0 0 0 0 0 -0 0 -0 0 0 -0 -0 -0 -0 -0 -0 -0 -0 0 -0 -0 -0 -0 -0 0 0 -0 -0 -0 -0
-0 0 -0 -0 -0 -0 0 0 -0 0 0 0 0 0 0 0 0 0 -0 -0 -0 -0 0 0 0 0 -0 -0 -0 -0 0 0 -0 0 0 0 0 0 -0 0 0 0 -0
-0 -0 0 0 0 0 0 0 0 0 0 0 0 0 0 0 0 -0 -0 -0 -0 0 0 -0 0 -0 -0 0 -0 -0 0 0 0 0 0 0 0 0 0 -0 0 -0 0
0 0 0 0 0 0 0 0 0 0 0 0 0 0 0 0 0 0 0 0 0 0 0 0 -0 0 0 0 0 0 -0 -0 0 0 0 0 0 0 0 0 -0 0 0
0 0 0 0 0 0 0 0 0 0 0 0 0 0 0 0 0 0 0 0 0 0 0 0 0 0 0 0 0 0 0 0 0 0 0 0 0 0 0 0 0 0 0
-0 0 0 0 0 0 0 0 0 0 0 1 -0 0 0 0 0 0 0 0 0 0 0 0 0 0 0 0 0 0 0 0 0 0 -0 0 0 0 0 0 0 0 0
Wind_Speed_500mb
58 47 39 33 36 38 39 38 38 36 34 32 29 29 32 31 27 24 23 22 20 17 21 21 21 19 21 26 24 22 25 26 26 27 25 24 22 21 22 27 26 20 22
57 40 37 32 33 34 36 33 32 29 28 27 25 27 30 28 23 19 19 17 18 20 20 21 21 24 25 25 27 29 28 27 27 25 24 20 18 14 18 24 27 20 21
58 47 37 34 33 36 37 35 32 30 27 25 22 25 24 23 20 18 19 18 19 20 20 21 20 23 25 29 29 28 28 26 26 28 30 20 16 20 21 21 19 20 21
52 49 42 34 31 33 32 31 29 28 26 24 22 22 20 17 17 18 19 19 21 19 20 22 23 26 27 27 27 26 25 24 25 30 23 18 14 18 18 18 19 20 19
38 34 33 30 30 31 30 27 25 23 22 22 20 19 16 13 17 17 17 19 21 21 23 23 25 24 26 28 28 26 25 24 26 24 18 20 14 15 18 17 17 21 24
33 30 33 30 33 33 29 25 24 23 22 18 17 15 14 10 13 14 16 16 19 19 19 20 23 22 26 27 25 24 23 21 26 16 15 23 14 14 15 16 16 16 18
34 30 34 33 33 29 26 23 22 21 18 16 12 10 11 8 10 13 15 14 17 18 19 18 20 21 22 19 20 19 16 18 15 15 15 13 10 12 11 11 12 14 15
31 31 28 32 29 27 24 22 19 17 14 11 10 8 8 9 10 9 12 15 15 17 17 16 17 17 16 18 16 15 16 16 11 11 12 11 8 11 10 10 10 13 14
27 27 24 24 28 25 21 16 14 13 13 11 8 7 7 5 3 4 7 17 14 16 15 13 14 16 15 15 13 12 12 14 8 5 7 3 5 7 6 7 8 10 11
26 26 26 25 21 19 15 16 14 13 13 11 8 9 7 5 7 11 9 11 17 17 14 13 14 15 15 14 13 11 5 1 7 7 4 8 12 6 2 6 7 7 11
27 25 24 23 21 19 15 15 13 15 15 13 10 9 5 5 10 6 11 8 9 11 15 15 15 16 17 16 17 15 12 10 9 9 8 17 13 13 12 13 12 11 13
28 26 24 22 19 16 14 13 12 11 9 16 17 14 7 4 3 5 10 11 12 13 15 17 16 18 16 11 15 17 11 18 19 10 10 22 22 19 22 25 24 19 17
32 30 27 25 20 18 15 14 9 11 11 17 16 15 9 5 7 5 8 10 16 20 15 18 16 14 16 20 18 18 18 17 24 24 16 18 21 27 25 34 33 27 25
29 28 26 23 19 16 16 14 19 13 17 15 11 19 17 12 12 14 15 16 14 13 17 20 22 23 27 24 21 22 22 21 21 27 28 30 25 24 21 29 35 35 32
26 28 26 22 20 18 6 16 14 16 14 15 13 17 17 19 17 15 20 19 19 16 18 20 24 27 25 31 29 26 26 27 28 29 29 38 30 27 22 27 35 38 35
24 24 24 24 23 24 15 5 7 12 12 11 13 20 20 18 23 18 21 21 22 23 23 23 26 27 28 30 32 31 33 33 34 34 32 32 36 31 25 23 29 35 37
25 23 23 23 23 20 14 10 7 7 8 10 13 16 20 24 27 31 31 31 27 30 28 30 28 35 46 38 35 37 40 41 41 43 41 34 32 33 33 27 31 33 35
26 26 25 22 21 21 18 14 14 11 7 6 21 26 22 20 23 27 29 31 29 31 34 36 36 36 40 50 57 52 47 37 38 37 38 41 38 32 33 33 27 31 35
26 26 25 24 21 19 17 16 15 10 9 29 35 23 19 9 19 22 20 27 34 33 33 34 37 38 41 43 48 49 46 40 37 35 38 39 40 41 34 35 37 30 30
26 25 23 22 22 21 17 15 13 13 14 10 12 13 20 12 26 26 20 27 27 31 34 37 38 40 39 37 37 38 38 35 33 34 35 37 39 42 40 37 33 36 33
23 24 22 18 19 17 13 11 10 9 10 4 14 17 18 16 16 27 13 22 24 31 27 33 36 37 39 34 34 37 38 37 37 33 30 33 39 41 43 42 40 34 35
24 22 19 15 13 11 12 9 5 7 9 13 15 12 14 17 22 17 34 34 31 30 25 21 34 35 37 38 33 25 17 18 27 29 30 29 34 38 42 44 44 42 39
22 22 19 18 15 10 12 9 7 8 5 8 10 14 15 18 21 19 17 21 23 21 20 29 30 29 36 39 33 26 11 12 9 18 22 27 30 33 38 43 47 46 45
13 18 20 18 15 15 10 8 4 3 3 7 5 13 14 15 11 13 14 14 17 21 21 25 28 29 35 42 37 36 32 26 14 11 14 18 26 28 33 39 44 46 46
10 19 18 7 7 7 9 5 6 3 10 1 8 13 16 17 15 11 14 15 16 19 18 21 25 29 32 35 37 36 29 30 31 34 28 27 24 28 31 30 32 41 44
10 12 18 15 23 6 5 8 7 18 13 13 13 12 11 14 11 19 13 12 17 16 18 20 20 23 24 28 32 32 35 32 26 33 39 41 37 38 37 35 33 34 37
Wind_Direction_500mb
140 136 129 135 136 136 133 132 133 131 129 125 119 113 118 115 118 119 120 125 126 131 127 129 133 130 120 115 120 123 119 119 117 114 116 115 112 112 112 104 82 111 111
140 136 132 136 142 136 138 144 146 144 136 128 122 118 117 117 118 130 134 134 126 134 137 134 127 124 121 115 118 119 123 119 118 116 110 104 112 123 119 120 139 112 117
142 135 139 142 142 138 134 134 138 138 140 133 124 118 116 115 108 113 118 126 130 131 133 134 129 126 122 121 119 115 114 116 115 110 98 95 110 113 113 119 126 115 114
144 141 146 147 150 151 144 143 143 143 140 133 127 123 118 111 110 117 122 123 132 134 129 126 130 128 127 127 121 121 117 116 115 101 97 107 110 115 114 108 110 113 117
146 137 143 152 159 156 152 149 147 145 139 132 130 123 116 113 122 126 140 132 132 134 133 132 126 133 125 122 120 115 112 114 111 98 115 113 116 114 112 110 106 110 115
142 141 146 147 152 149 148 151 149 142 137 138 132 127 118 129 133 138 147 144 145 138 135 143 143 138 131 126 114 112 109 106 88 114 104 118 130 116 111 118 130 124 125
141 152 150 152 151 149 150 149 145 144 149 151 144 137 128 145 154 157 165 157 157 153 147 147 146 140 140 132 121 115 111 114 120 107 116 123 131 116 119 118 126 125 123
146 149 162 160 156 157 155 151 148 153 164 168 161 165 155 175 169 163 165 157 163 158 161 162 164 159 149 133 117 110 100 125 130 120 114 114 113 109 117 134 129 130 131
145 151 159 161 168 167 167 165 168 179 189 187 180 184 181 158 119 221 187 179 172 177 182 191 183 176 171 160 154 145 137 127 144 163 133 115 82 103 114 141 155 145 152
153 164 163 169 171 170 186 188 195 194 196 191 195 200 177 157 204 225 207 193 192 196 197 204 202 200 203 195 193 198 176 127 128 25 309 223 250 269 212 220 213 198 182
162 167 167 170 175 170 183 223 216 220 208 196 205 190 163 260 296 12 198 221 201 206 214 225 224 218 217 221 224 228 238 222 208 336 281 261 270 262 243 231 235 224 215
173 171 174 174 181 192 187 212 206 215 204 227 193 211 205 246 191 189 225 222 232 235 237 251 233 229 223 231 265 252 260 256 245 270 293 268 266 260 256 245 244 231 225
179 177 183 180 184 185 200 213 204 222 217 239 224 214 236 241 242 239 253 277 243 251 236 256 259 244 243 237 245 244 245 267 261 251 268 288 274 265 264 238 234 231 226
186 184 189 191 185 192 212 222 208 201 227 226 253 239 244 258 270 270 287 261 271 237 248 244 231 232 235 245 246 254 256 254 258 284 286 285 275 276 261 242 231 231 227
195 199 197 194 197 193 83 245 217 211 217 224 244 256 247 251 264 276 281 297 275 258 257 246 240 241 247 242 244 252 258 259 255 258 264 274 268 271 268 240 236 227 225
191 198 199 201 202 207 212 72 181 214 235 252 262 262 271 259 265 270 279 274 287 275 257 254 251 248 256 261 262 265 264 259 258 255 256 264 273 265 264 247 232 228 235
189 193 196 202 211 223 241 232 223 210 225 240 264 285 289 289 277 275 276 274 272 275 272 256 251 251 252 247 255 260 260 262 260 256 255 254 261 273 253 250 238 234 235
193 198 193 198 205 220 227 238 242 253 256 317 333 317 305 311 299 286 279 280 277 274 272 274 269 262 259 255 255 258 261 260 255 252 252 245 245 244 264 256 245 238 236
202 205 209 208 207 211 232 236 247 248 277 53 46 19 334 307 335 314 293 284 284 280 275 273 275 271 263 262 262 265 268 256 253 255 250 245 241 234 234 250 256 242 240
201 207 211 213 218 217 219 248 247 249 309 258 292 332 360 19 355 348 298 287 291 287 272 275 275 272 270 267 266 263 261 262 257 255 251 244 243 235 238 232 248 245 244
211 213 218 224 229 237 232 226 230 267 245 325 292 316 323 330 8 352 5 342 304 300 289 275 274 277 275 272 264 266 269 264 252 254 251 242 235 238 232 232 236 236 250
208 215 212 212 226 226 214 229 261 307 309 322 308 330 315 309 296 293 282 293 294 291 289 294 295 274 277 275 264 266 266 262 244 245 244 240 237 235 235 235 234 235 234
209 207 198 212 238 232 217 259 253 275 300 314 286 306 306 304 305 313 303 290 289 297 272 278 326 278 273 278 271 250 244 229 243 245 232 238 241 234 234 237 238 238 237
182 188 181 214 222 244 247 242 221 173 323 227 296 318 338 334 328 315 322 310 306 296 285 283 282 287 274 266 265 258 249 258 258 274 246 254 242 242 240 240 240 237 236
136 167 170 203 218 236 209 211 207 181 47 356 325 342 338 333 332 323 318 315 313 311 304 285 282 285 280 268 264 262 259 249 259 254 271 265 243 243 249 245 242 237 237
122 147 165 194 206 288 314 278 262 269 277 304 309 327 335 311 319 310 305 308 312 312 305 304 294 296 295 284 276 268 262 256 252 258 262 259 257 255 241 248 242 238 240
Wind_Speed_850mb
58 47 39 33 36 38 39 38 38 36 34 32 29 29 32 31 27 24 23 22 20 17 21 21 21 19 21 26 24 22 25 26 26 27 25 24 22 21 22 27 26 20 22
57 40 37 32 33 34 36 33 32 29 28 27 25 27 30 28 23 19 19 17 18 20 20 21 21 24 25 25 27 29 28 27 27 25 24 20 18 14 18 24 27 20 21
58 47 37 34 33 36 37 35 32 30 27 25 22 25 24 23 20 18 19 18 19 20 20 21 20 23 25 29 29 28 28 26 26 28 30 20 16 20 21 21 19 20 21
52 49 42 34 31 33 32 31 29 28 26 24 22 22 20 17 17 18 19 19 21 19 20 22 23 26 27 27 27 26 25 24 25 30 23 18 14 18 18 18 19 20 19
38 34 33 30 30 31 30 27 25 23 22 22 20 19 16 13 17 17 17 19 21 21 23 23 25 24 26 28 28 26 25 24 26 24 18 20 14 15 18 17 17 21 24
33 30 33 30 33 33 29 25 24 23 22 18 17 15 14 10 13 14 16 16 19 19 19 20 23 22 26 27 25 24 23 21 26 16 15 23 14 14 15 16 16 16 18
34 30 34 33 33 29 26 23 22 21 18 16 12 10 11 8 10 13 15 14 17 18 19 18 20 21 22 19 20 19 16 18 15 15 15 13 10 12 11 11 12 14 15
31 31 28 32 29 27 24 22 19 17 14 11 10 8 8 9 10 9 12 15 15 17 17 16 17 17 16 18 16 15 16 16 11 11 12 11 8 11 10 10 10 13 14
27 27 24 24 28 25 21 16 14 13 13 11 8 7 7 5 3 4 7 17 14 16 15 13 14 16 15 15 13 12 12 14 8 5 7 3 5 7 6 7 8 10 11
26 26 26 25 21 19 15 16 14 13 13 11 8 9 7 5 7 11 9 11 17 17 14 13 14 15 15 14 13 11 5 1 7 7 4 8 12 6 2 6 7 7 11
27 25 24 23 21 19 15 15 13 15 15 13 10 9 5 5 10 6 11 8 9 11 15 15 15 16 17 16 17 15 12 10 9 9 8 17 13 13 12 13 12 11 13
28 26 24 22 19 16 14 13 12 11 9 16 17 14 7 4 3 5 10 11 12 13 15 17 16 18 16 11 15 17 11 18 19 10 10 22 22 19 22 25 24 19 17
32 30 27 25 20 18 15 14 9 11 11 17 16 15 9 5 7 5 8 10 16 20 15 18 16 14 16 20 18 18 18 17 24 24 16 18 21 27 25 34 33 27 25
29 28 26 23 19 16 16 14 19 13 17 15 11 19 17 12 12 14 15 16 14 13 17 20 22 23 27 24 21 22 22 21 21 27 28 30 25 24 21 29 35 35 32
26 28 26 22 20 18 6 16 14 16 14 15 13 17 17 19 17 15 20 19 19 16 18 20 24 27 25 31 29 26 26 27 28 29 29 38 30 27 22 27 35 38 35
24 24 24 24 23 24 15 5 7 12 12 11 13 20 20 18 23 18 21 21 22 23 23 23 26 27 28 30 32 31 33 33 34 34 32 32 36 31 25 23 29 35 37
25 23 23 23 23 20 14 10 7 7 8 10 13 16 20 24 27 31 31 31 27 30 28 30 28 35 46 38 35 37 40 41 41 43 41 34 32 33 33 27 31 33 35
26 26 25 22 21 21 18 14 14 11 7 6 21 26 22 20 23 27 29 31 29 31 34 36 36 36 40 50 57 52 47 37 38 37 38 41 38 32 33 33 27 31 35
26 26 25 24 21 19 17 16 15 10 9 29 35 23 19 9 19 22 20 27 34 33 33 34 37 38 41 43 48 49 46 40 37 35 38 39 40 41 34 35 37 30 30
26 25 23 22 22 21 17 15 13 13 14 10 12 13 20 12 26 26 20 27 27 31 34 37 38 40 39 37 37 38 38 35 33 34 35 37 39 42 40 37 33 36 33
23 24 22 18 19 17 13 11 10 9 10 4 14 17 18 16 16 27 13 22 24 31 27 33 36 37 39 34 34 37 38 37 37 33 30 33 39 41 43 42 40 34 35
24 22 19 15 13 11 12 9 5 7 9 13 15 12 14 17 22 17 34 34 31 30 25 21 34 35 37 38 33 25 17 18 27 29 30 29 34 38 42 44 44 42 39
22 22 19 18 15 10 12 9 7 8 5 8 10 14 15 18 21 19 17 21 23 21 20 29 30 29 36 39 33 26 11 12 9 18 22 27 30 33 38 43 47 46 45
13 18 20 18 15 15 10 8 4 3 3 7 5 13 14 15 11 13 14 14 17 21 21 25 28 29 35 42 37 36 32 26 14 11 14 18 26 28 33 39 44 46 46
10 19 18 7 7 7 9 5 6 3 10 1 8 13 16 17 15 11 14 15 16 19 18 21 25 29 32 35 37 36 29 30 31 34 28 27 24 28 31 30 32 41 44
10 12 18 15 23 6 5 8 7 18 13 13 13 12 11 14 11 19 13 12 17 16 18 20 20 23 24 28 32 32 35 32 26 33 39 41 37 38 37 35 33 34 37
Wind_Direction_850mb
140 136 129 135 136 136 133 132 133 131 129 125 119 113 118 115 118 119 120 125 126 131 127 129 133 130 120 115 120 123 119 119 117 114 116 115 112 112 112 104 82 111 111
140 136 132 136 142 136 138 144 146 144 136 128 122 118 117 117 118 130 134 134 126 134 137 134 127 124 121 115 118 119 123 119 118 116 110 104 112 123 119 120 139 112 117
142 135 139 142 142 138 134 134 138 138 140 133 124 118 116 115 108 113 118 126 130 131 133 134 129 126 122 121 119 115 114 116 115 110 98 95 110 113 113 119 126 115 114
144 141 146 147 150 151 144 143 143 143 140 133 127 123 118 111 110 117 122 123 132 134 129 126 130 128 127 127 121 121 117 116 115 101 97 107 110 115 114 108 110 113 117
146 137 143 152 159 156 152 149 147 145 139 132 130 123 116 113 122 126 140 132 132 134 133 132 126 133 125 122 120 115 112 114 111 98 115 113 116 114 112 110 106 110 115
142 141 146 147 152 149 148 151 149 142 137 138 132 127 118 129 133 138 147 144 145 138 135 143 143 138 131 126 114 112 109 106 88 114 104 118 130 116 111 118 130 124 125
141 152 150 152 151 149 150 149 145 144 149 151 144 137 128 145 154 157 165 157 157 153 147 147 146 140 140 132 121 115 111 114 120 107 116 123 131 116 119 118 126 125 123
146 149 162 160 156 157 155 151 148 153 164 168 161 165 155 175 169 163 165 157 163 158 161 162 164 159 149 133 117 110 100 125 130 120 114 114 113 109 117 134 129 130 131
145 151 159 161 168 167 167 165 168 179 189 187 180 184 181 158 119 221 187 179 172 177 182 191 183 176 171 160 154 145 137 127 144 163 133 115 82 103 114 141 155 145 152
153 164 163 169 171 170 186 188 195 194 196 191 195 200 177 157 204 225 207 193 192 196 197 204 202 200 203 195 193 198 176 127 128 25 309 223 250 269 212 220 213 198 182
162 167 167 170 175 170 183 223 216 220 208 196 205 190 163 260 296 12 198 221 201 206 214 225 224 218 217 221 224 228 238 222 208 336 281 261 270 262 243 231 235 224 215
173 171 174 174 181 192 187 212 206 215 204 227 193 211 205 246 191 189 225 222 232 235 237 251 233 229 223 231 265 252 260 256 245 270 293 268 266 260 256 245 244 231 225
179 177 183 180 184 185 200 213 204 222 217 239 224 214 236 241 242 239 253 277 243 251 236 256 259 244 243 237 245 244 245 267 261 251 268 288 274 265 264 238 234 231 226
186 184 189 191 185 192 212 222 208 201 227 226 253 239 244 258 270 270 287 261 271 237 248 244 231 232 235 245 246 254 256 254 258 284 286 285 275 276 261 242 231 231 227
195 199 197 194 197 193 83 245 217 211 217 224 244 256 247 251 264 276 281 297 275 258 257 246 240 241 247 242 244 252 258 259 255 258 264 274 268 271 268 240 236 227 225
191 198 199 201 202 207 212 72 181 214 235 252 262 262 271 259 265 270 279 274 287 275 257 254 251 248 256 261 262 265 264 259 258 255 256 264 273 265 264 247 232 228 235
189 193 196 202 211 223 241 232 223 210 225 240 264 285 289 289 277 275 276 274 272 275 272 256 251 251 252 247 255 260 260 262 260 256 255 254 261 273 253 250 238 234 235
193 198 193 198 205 220 227 238 242 253 256 317 333 317 305 311 299 286 279 280 277 274 272 274 269 262 259 255 255 258 261 260 255 252 252 245 245 244 264 256 245 238 236
202 205 209 208 207 211 232 236 247 248 277 53 46 19 334 307 335 314 293 284 284 280 275 273 275 271 263 262 262 265 268 256 253 255 250 245 241 234 234 250 256 242 240
201 207 211 213 218 217 219 248 247 249 309 258 292 332 360 19 355 348 298 287 291 287 272 275 275 272 270 267 266 263 261 262 257 255 251 244 243 235 238 232 248 245 244
211 213 218 224 229 237 232 226 230 267 245 325 292 316 323 330 8 352 5 342 304 300 289 275 274 277 275 272 264 266 269 264 252 254 251 242 235 238 232 232 236 236 250
208 215 212 212 226 226 214 229 261 307 309 322 308 330 315 309 296 293 282 293 294 291 289 294 295 274 277 275 264 266 266 262 244 245 244 240 237 235 235 235 234 235 234
209 207 198 212 238 232 217 259 253 275 300 314 286 306 306 304 305 313 303 290 289 297 272 278 326 278 273 278 271 250 244 229 243 245 232 238 241 234 234 237 238 238 237
182 188 181 214 222 244 247 242 221 173 323 227 296 318 338 334 328 315 322 310 306 296 285 283 282 287 274 266 265 258 249 258 258 274 246 254 242 242 240 240 240 237 236
136 167 170 203 218 236 209 211 207 181 47 356 325 342 338 333 332 323 318 315 313 311 304 285 282 285 280 268 264 262 259 249 259 254 271 265 243 243 249 245 242 237 237
122 147 165 194 206 288 314 278 262 269 277 304 309 327 335 311 319 310 305 308 312 312 305 304 294 296 295 284 276 268 262 256 252 258 262 259 257 255 241 248 242 238 240